Date,TemperatureHighF,TemperatureAvgF,TemperatureLowF,DewpointHighF,DewpointAvgF,DewpointLowF,HumidityHigh,HumidityAvg,HumidityLow,PressureMaxIn,PressureMinIn,WindSpeedMaxMPH,WindSpeedAvgMPH,GustSpeedMaxMPH,PrecipitationSumIn
2013-1-1,60.6,43.2,30.2,30.2,25.2,16.0,83,54,18,30.31,30.12,6,1,0,0.00
2013-1-2,58.5,40.5,28.0,26.5,23.0,13.7,84,54,19,30.34,28.35,13,4,13,0.00
2013-1-3,54.3,33.2,29.3,35.9,28.5,22.8,99,83,67,30.58,30.30,13,7,13,0.02
2013-1-4,37.2,32.9,28.2,34.8,31.6,-4.4,99,95,85,30.49,30.34,8,3,8,0.07
2013-1-5,60.6,38.2,21.6,34.6,27.9,21.1,99,73,26,30.37,30.13,18,4,18,0.01
2013-1-6,63.0,39.3,21.6,31.9,22.2,7.1,99,62,11,30.52,30.28,8,3,8,0.00
2013-1-7,56.7,41.4,27.3,33.2,29.3,23.4,93,65,33,30.30,30.01,21,7,21,0.00
2013-1-8,48.7,40.1,31.3,40.2,34.8,29.4,95,82,62,30.11,29.96,8,3,8,0.00
2013-1-9,53.1,43.2,33.4,46.5,42.8,33.2,99,99,93,30.22,30.01,21,6,21,1.31
2013-1-10,65.7,48.8,35.4,45.1,40.6,14.9,99,77,33,30.15,29.93,13,6,13,0.02
2013-1-11,70.9,54.8,42.3,44.9,38.5,26.4,95,61,20,29.96,29.74,15,5,15,0.00
2013-1-12,63.1,46.0,33.4,37.7,21.5,0.4,78,47,10,30.32,29.88,13,4,13,0.00
2013-1-13,50.4,35.1,22.5,27.9,22.9,15.9,94,66,26,30.29,30.07,14,6,14,0.00
2013-1-14,49.1,32.2,22.6,22.4,17.2,10.8,81,58,21,30.30,30.09,15,7,15,0.00
2013-1-15,52.0,33.7,22.3,22.5,16.5,10.4,85,53,19,30.33,30.20,13,3,13,0.00
2013-1-16,63.7,37.7,18.0,60.4,15.4,-1.4,100,55,10,30.40,30.27,17,5,17,0.00
2013-1-17,67.3,43.3,24.1,29.4,22.1,9.5,93,55,11,30.50,30.40,9,3,9,0.00
2013-1-18,70.9,47.7,26.8,32.7,25.5,10.0,95,53,10,30.50,30.20,13,4,13,0.00
2013-1-19,79.2,52.2,29.8,39.6,23.2,4.6,96,44,10,30.32,30.16,13,3,13,0.00
2013-1-20,80.2,48.1,24.8,28.3,22.1,6.7,91,47,10,30.34,30.10,6,2,7,0.00
2013-1-21,70.3,56.2,33.1,30.6,22.4,15.3,70,31,12,30.35,30.16,8,4,8,0.00
2013-1-22,74.7,56.0,29.7,46.3,36.6,13.7,99,59,10,30.32,30.16,9,4,9,0.00
2013-1-23,85.5,59.1,39.2,47.4,32.3,10.1,99,60,10,30.33,30.15,14,3,14,0.00
2013-1-24,88.5,69.2,48.0,37.6,28.7,20.5,64,29,10,30.21,30.08,17,3,17,0.00
2013-1-25,90.9,60.2,40.3,42.3,33.5,19.1,90,47,10,30.25,30.07,9,2,9,0.00
2013-1-26,84.0,60.6,44.6,58.9,44.8,34.6,91,59,22,30.19,29.94,17,8,17,0.00
2013-1-27,86.2,66.6,46.0,58.1,47.2,18.3,99,59,16,30.12,29.89,15,4,15,0.00
2013-1-28,84.7,64.3,40.3,59.1,38.5,12.2,99,55,10,30.05,29.81,22,6,22,0.00
2013-1-29,63.9,52.6,43.9,58.9,23.6,-2.0,88,38,11,30.01,29.80,34,15,34,2.16
2013-1-30,52.5,35.8,27.0,24.9,19.8,10.3,80,55,26,30.31,30.01,20,6,20,0.00
2013-1-31,75.2,58.3,45.9,64.2,12.5,0.4,100,18,11,30.44,30.17,6,1,6,0.00